| time (UTC) | temp F | wind direction | speed knots | gust knots | rain 1hr in | rain 24hr in | rain mn in | humidity % | barometer mb |
| 20260903231028 | 78 | 303 | 0.0 | 1.7 | 0.00 | 0.00 | 0.00 | 87 | 1019.9 |
| 20260903230024 | 78 | 0.0 | 0.0 | 0.00 | 0.00 | 0.00 | 87 | 1019.9 | |
| 20260903225020 | 78 | 319 | 0.0 | 1.7 | 0.00 | 0.00 | 0.00 | 87 | 1020.0 |
| 20260903224035 | 78 | 0.0 | 0.0 | 0.00 | 0.00 | 0.00 | 87 | 1020.0 | |
| 20260903223030 | 78 | 39 | 0.0 | 0.9 | 0.00 | 0.00 | 0.00 | 87 | 1020.1 |
| 20260903222026 | 78 | 39 | 0.0 | 0.9 | 0.00 | 0.00 | 0.00 | 87 | 1020.2 |
| 20260903221021 | 78 | 0.0 | 0.0 | 0.00 | 0.00 | 0.00 | 87 | 1020.2 | |
| 20260903220016 | 78 | 0.0 | 0.0 | 0.00 | 0.00 | 0.00 | 87 | 1020.2 | |
| 20260903215032 | 79 | 0.0 | 0.0 | 0.00 | 0.00 | 0.00 | 87 | 1020.4 | |
| 20260903214047 | 79 | 43 | 0.0 | 0.9 | 0.00 | 0.00 | 0.00 | 87 | 1020.5 |
| 20260903213022 | 79 | 0.0 | 0.0 | 0.00 | 0.00 | 0.00 | 87 | 1020.6 | |
| 20260903212038 | 79 | 0.0 | 0.0 | 0.00 | 0.00 | 0.00 | 87 | 1020.6 | |
| 20260903211053 | 79 | 0.0 | 0.0 | 0.00 | 0.00 | 0.00 | 87 | 1020.6 | |
| 20260903210028 | 79 | 0.0 | 0.0 | 0.00 | 0.00 | 0.00 | 87 | 1020.7 | |
| 20260903205023 | 79 | 45 | 0.0 | 0.9 | 0.00 | 0.00 | 0.00 | 86 | 1020.6 |
| 20260903204018 | 79 | 48 | 0.0 | 0.9 | 0.00 | 0.00 | 0.00 | 86 | 1020.5 |
| 20260903203053 | 79 | 62 | 0.0 | 2.6 | 0.00 | 0.00 | 0.00 | 86 | 1020.3 |
| 20260903202030 | 79 | 67 | 0.0 | 0.9 | 0.00 | 0.00 | 0.00 | 86 | 1020.3 |
| 20260903201024 | 79 | 71 | 0.0 | 0.9 | 0.00 | 0.00 | 0.00 | 86 | 1020.4 |
| 20260903200019 | 79 | 63 | 0.9 | 1.7 | 0.00 | 0.00 | 0.00 | 86 | 1020.1 |
| 20260903195035 | 79 | 67 | 0.0 | 1.7 | 0.00 | 0.00 | 0.00 | 86 | 1020.0 |
| 20260903194030 | 79 | 80 | 0.9 | 3.5 | 0.00 | 0.00 | 0.00 | 85 | 1020.0 |
| 20260903193025 | 79 | 72 | 0.9 | 2.6 | 0.00 | 0.00 | 0.00 | 85 | 1019.8 |
| 20260903192020 | 79 | 71 | 0.9 | 3.5 | 0.00 | 0.00 | 0.00 | 85 | 1019.6 |
| 20260903191016 | 79 | 80 | 0.9 | 2.6 | 0.00 | 0.00 | 0.00 | 85 | 1019.5 |
| 20260903190032 | 79 | 88 | 1.7 | 3.5 | 0.00 | 0.00 | 0.00 | 84 | 1019.3 |
| 20260903185027 | 80 | 98 | 2.6 | 5.2 | 0.00 | 0.00 | 0.00 | 84 | 1019.2 |
| 20260903184022 | 80 | 89 | 1.7 | 3.5 | 0.00 | 0.00 | 0.00 | 84 | 1019.2 |
| 20260903183017 | 80 | 91 | 2.6 | 6.1 | 0.00 | 0.00 | 0.00 | 83 | 1019.1 |
| 20260903182033 | 80 | 93 | 4.3 | 7.0 | 0.00 | 0.00 | 0.00 | 83 | 1019.1 |
| 20260903181028 | 80 | 84 | 2.6 | 7.0 | 0.00 | 0.00 | 0.00 | 83 | 1019.0 |
| 20260903180104 | 80 | 95 | 4.3 | 7.8 | 0.00 | 0.00 | 0.00 | 82 | 1019.0 |
| 20260903175020 | 81 | 91 | 3.5 | 7.8 | 0.00 | 0.00 | 0.00 | 82 | 1018.9 |
| 20260903174035 | 81 | 91 | 3.5 | 7.8 | 0.00 | 0.00 | 0.00 | 80 | 1018.9 |
| 20260903173030 | 81 | 102 | 5.2 | 9.6 | 0.00 | 0.00 | 0.00 | 79 | 1018.9 |
| 20260903172046 | 81 | 100 | 4.3 | 7.8 | 0.00 | 0.00 | 0.00 | 79 | 1018.9 |
| 20260903171022 | 82 | 86 | 4.3 | 7.0 | 0.00 | 0.00 | 0.00 | 75 | 1018.8 |
| 20260903170016 | 82 | 96 | 6.1 | 11.3 | 0.00 | 0.00 | 0.00 | 75 | 1018.7 |
| 20260903165032 | 82 | 87 | 5.2 | 9.6 | 0.00 | 0.00 | 0.00 | 75 | 1018.8 |
| 20260903164027 | 82 | 102 | 6.1 | 9.6 | 0.00 | 0.00 | 0.00 | 76 | 1018.8 |
| 20260903163023 | 82 | 89 | 5.2 | 11.3 | 0.00 | 0.00 | 0.00 | 74 | 1018.8 |
| 20260903162018 | 82 | 107 | 7.0 | 13.0 | 0.00 | 0.00 | 0.00 | 74 | 1018.9 |
| 20260903161033 | 83 | 133 | 6.1 | 13.0 | 0.00 | 0.00 | 0.00 | 73 | 1018.9 |
| 20260903160029 | 84 | 88 | 5.2 | 12.2 | 0.00 | 0.00 | 0.00 | 71 | 1018.9 |
| 20260903155024 | 83 | 133 | 6.1 | 12.2 | 0.00 | 0.00 | 0.00 | 70 | 1018.9 |
| 20260903154019 | 84 | 109 | 6.1 | 13.0 | 0.00 | 0.00 | 0.00 | 70 | 1018.9 |
| 20260903153054 | 84 | 126 | 7.0 | 11.3 | 0.00 | 0.00 | 0.00 | 69 | 1019.0 |
| 20260903152030 | 84 | 120 | 6.1 | 12.2 | 0.00 | 0.00 | 0.00 | 68 | 1019.0 |
| 20260903151025 | 84 | 132 | 7.8 | 12.2 | 0.00 | 0.00 | 0.00 | 66 | 1019.0 |
| 20260903150020 | 84 | 111 | 7.0 | 12.2 | 0.00 | 0.00 | 0.00 | 66 | 1019.0 |
| 20260903145035 | 85 | 98 | 6.1 | 14.8 | 0.00 | 0.00 | 0.00 | 65 | 1019.0 |
| 20260903144030 | 85 | 107 | 7.0 | 12.2 | 0.00 | 0.00 | 0.00 | 65 | 1019.2 |
| 20260903143025 | 85 | 106 | 5.2 | 9.6 | 0.00 | 0.00 | 0.00 | 64 | 1019.3 |
| 20260903142101 | 85 | 102 | 6.1 | 11.3 | 0.00 | 0.00 | 0.00 | 63 | 1019.3 |
| 20260903141016 | 86 | 122 | 7.0 | 12.2 | 0.00 | 0.00 | 0.00 | 59 | 1019.3 |
| 20260903140031 | 86 | 97 | 5.2 | 8.7 | 0.00 | 0.00 | 0.00 | 59 | 1019.4 |
| 20260903135026 | 86 | 117 | 6.1 | 12.2 | 0.00 | 0.00 | 0.00 | 60 | 1019.5 |
| 20260903134021 | 86 | 120 | 6.1 | 12.2 | 0.00 | 0.00 | 0.00 | 61 | 1019.6 |
| 20260903133017 | 86 | 104 | 5.2 | 12.2 | 0.00 | 0.00 | 0.00 | 61 | 1019.7 |
| 20260903132032 | 87 | 104 | 6.1 | 11.3 | 0.00 | 0.00 | 0.00 | 58 | 1019.7 |
| 20260903131027 | 86 | 133 | 5.2 | 8.7 | 0.00 | 0.00 | 0.00 | 57 | 1019.9 |
| 20260903130022 | 86 | 105 | 5.2 | 11.3 | 0.00 | 0.00 | 0.00 | 58 | 1019.8 |
| 20260903125018 | 86 | 115 | 5.2 | 11.3 | 0.00 | 0.00 | 0.00 | 58 | 1019.9 |
| 20260903124033 | 86 | 122 | 6.1 | 13.9 | 0.00 | 0.00 | 0.00 | 61 | 1019.9 |
| 20260903123028 | 87 | 103 | 4.3 | 8.7 | 0.00 | 0.00 | 0.00 | 61 | 1020.0 |
| 20260903122023 | 86 | 128 | 4.3 | 8.7 | 0.00 | 0.00 | 0.00 | 64 | 1020.0 |
| 20260903121019 | 86 | 103 | 5.2 | 12.2 | 0.00 | 0.00 | 0.00 | 66 | 1020.1 |
| 20260903120034 | 86 | 116 | 5.2 | 12.2 | 0.00 | 0.00 | 0.00 | 67 | 1020.2 |
| 20260903115029 | 86 | 120 | 4.3 | 11.3 | 0.00 | 0.00 | 0.00 | 68 | 1020.2 |
| 20260903114025 | 85 | 127 | 5.2 | 8.7 | 0.00 | 0.00 | 0.00 | 69 | 1020.4 |
| 20260903113020 | 86 | 103 | 5.2 | 8.7 | 0.00 | 0.00 | 0.00 | 68 | 1020.4 |
| 20260903112115 | 86 | 128 | 4.3 | 8.7 | 0.00 | 0.00 | 0.00 | 68 | 1020.5 |
| 20260903111030 | 85 | 150 | 3.5 | 8.7 | 0.00 | 0.00 | 0.00 | 69 | 1020.6 |
| 20260903110025 | 85 | 156 | 4.3 | 7.0 | 0.00 | 0.00 | 0.00 | 70 | 1020.7 |
| 20260903105021 | 84 | 111 | 4.3 | 7.8 | 0.00 | 0.00 | 0.00 | 72 | 1020.8 |
| 20260903104016 | 83 | 111 | 5.2 | 12.2 | 0.00 | 0.00 | 0.00 | 74 | 1020.9 |
| 20260903103031 | 84 | 137 | 5.2 | 12.2 | 0.00 | 0.00 | 0.00 | 73 | 1021.0 |
| 20260903102027 | 84 | 122 | 5.2 | 11.3 | 0.00 | 0.00 | 0.00 | 73 | 1021.0 |
| 20260903101042 | 84 | 147 | 2.6 | 7.0 | 0.00 | 0.00 | 0.00 | 71 | 1021.0 |
| 20260903100017 | 83 | 78 | 1.7 | 6.1 | 0.00 | 0.00 | 0.00 | 73 | 1020.9 |
| 20260903095033 | 84 | 103 | 3.5 | 7.8 | 0.00 | 0.00 | 0.00 | 70 | 1020.8 |
| 20260903094028 | 84 | 128 | 0.9 | 3.5 | 0.00 | 0.00 | 0.00 | 70 | 1020.9 |
| 20260903093024 | 84 | 148 | 1.7 | 6.1 | 0.00 | 0.00 | 0.00 | 70 | 1020.9 |
| 20260903092039 | 83 | 149 | 1.7 | 6.1 | 0.00 | 0.00 | 0.00 | 72 | 1021.0 |
| 20260903091034 | 83 | 71 | 0.9 | 1.7 | 0.00 | 0.00 | 0.00 | 72 | 1021.1 |
| 20260903090030 | 84 | 106 | 0.9 | 3.5 | 0.00 | 0.00 | 0.00 | 71 | 1021.0 |
| 20260903085025 | 83 | 95 | 0.0 | 0.9 | 0.00 | 0.00 | 0.00 | 72 | 1021.0 |
| 20260903084020 | 82 | 127 | 0.9 | 1.7 | 0.00 | 0.00 | 0.00 | 74 | 1020.8 |
| 20260903083035 | 81 | 113 | 1.7 | 2.6 | 0.00 | 0.00 | 0.00 | 77 | 1020.8 |
| 20260903082030 | 81 | 55 | 0.0 | 1.7 | 0.00 | 0.00 | 0.00 | 78 | 1020.7 |
| 20260903081026 | 82 | 88 | 0.0 | 0.9 | 0.00 | 0.00 | 0.00 | 77 | 1020.8 |
| 20260903080022 | 81 | 106 | 0.9 | 1.7 | 0.00 | 0.00 | 0.00 | 77 | 1020.9 |
| 20260903075057 | 81 | 101 | 0.0 | 0.9 | 0.00 | 0.00 | 0.00 | 78 | 1020.7 |
| 20260903074032 | 80 | 123 | 0.0 | 1.7 | 0.00 | 0.00 | 0.00 | 79 | 1020.8 |
| 20260903073027 | 80 | 95 | 0.0 | 1.7 | 0.00 | 0.00 | 0.00 | 79 | 1020.8 |
| 20260903072023 | 80 | 58 | 0.0 | 0.9 | 0.00 | 0.00 | 0.00 | 79 | 1020.7 |
| 20260903071019 | 79 | 53 | 0.0 | 0.9 | 0.00 | 0.00 | 0.00 | 81 | 1020.8 |
| 20260903070034 | 78 | 0.0 | 0.0 | 0.00 | 0.00 | 0.00 | 85 | 1020.7 | |
| 20260903065029 | 77 | 0.0 | 0.0 | 0.00 | 0.00 | 0.00 | 87 | 1020.6 | |
| 20260903064024 | 76 | 0.0 | 0.0 | 0.00 | 0.00 | 0.00 | 89 | 1020.5 | |
| 20260903063020 | 76 | 0.0 | 0.0 | 0.00 | 0.00 | 0.00 | 90 | 1020.4 | |
| 20260903062115 | 75 | 0.0 | 0.0 | 0.00 | 0.00 | 0.00 | 90 | 1020.2 | |
| 20260903061030 | 75 | 0.0 | 0.0 | 0.00 | 0.00 | 0.00 | 91 | 1020.3 | |
| 20260903060025 | 75 | 0.0 | 0.0 | 0.00 | 0.00 | 0.00 | 91 | 1020.0 | |
| 20260903055020 | 75 | 358 | 0.0 | 0.9 | 0.00 | 0.00 | 0.00 | 91 | 1019.8 |
| 20260903054016 | 75 | 4 | 0.0 | 0.9 | 0.00 | 0.00 | 0.00 | 91 | 1019.8 |
| 20260903053031 | 74 | 352 | 0.0 | 1.7 | 0.00 | 0.00 | 0.00 | 92 | 1019.7 |
| 20260903052027 | 75 | 351 | 0.0 | 0.9 | 0.00 | 0.00 | 0.00 | 92 | 1019.7 |
| 20260903051042 | 75 | 351 | 0.0 | 0.9 | 0.00 | 0.00 | 0.00 | 92 | 1019.7 |
| 20260903050017 | 75 | 0.0 | 0.0 | 0.00 | 0.00 | 0.00 | 91 | 1019.7 | |
| 20260903045033 | 75 | 0.0 | 0.0 | 0.00 | 0.00 | 0.00 | 91 | 1019.6 | |
| 20260903044028 | 75 | 0.0 | 0.0 | 0.00 | 0.00 | 0.00 | 91 | 1019.5 | |
| 20260903043023 | 75 | 0.0 | 0.0 | 0.00 | 0.00 | 0.00 | 91 | 1019.3 | |
| 20260903042018 | 75 | 0.0 | 0.0 | 0.00 | 0.00 | 0.00 | 91 | 1019.3 | |
| 20260903041034 | 75 | 0.0 | 0.0 | 0.00 | 0.00 | 0.00 | 91 | 1019.2 | |
| 20260903040050 | 75 | 0.0 | 0.0 | 0.00 | 0.00 | 0.00 | 91 | 1019.3 | |
| 20260903035024 | 75 | 0.0 | 0.0 | 0.00 | 0.00 | 0.00 | 90 | 1019.2 | |
| 20260903034020 | 76 | 0.0 | 0.0 | 0.00 | 0.00 | 0.00 | 90 | 1019.3 | |
| 20260903033015 | 76 | 0.0 | 0.0 | 0.00 | 0.00 | 0.00 | 90 | 1019.3 | |
| 20260903032050 | 76 | 0.0 | 0.0 | 0.00 | 0.00 | 0.00 | 89 | 1019.3 | |
| 20260903031026 | 76 | 0.0 | 0.0 | 0.00 | 0.00 | 0.00 | 89 | 1019.3 | |
| 20260903030021 | 76 | 348 | 0.0 | 0.9 | 0.00 | 0.00 | 0.00 | 89 | 1019.3 |
| 20260903025056 | 76 | 0.0 | 0.0 | 0.00 | 0.00 | 0.00 | 89 | 1019.4 | |
| 20260903024051 | 76 | 0.0 | 0.0 | 0.00 | 0.00 | 0.00 | 89 | 1019.3 | |
| 20260903023026 | 76 | 0.0 | 0.0 | 0.00 | 0.00 | 0.00 | 88 | 1019.4 | |
| 20260903022022 | 77 | 0.0 | 0.0 | 0.00 | 0.00 | 0.00 | 88 | 1019.4 | |
| 20260903021017 | 77 | 0.0 | 0.0 | 0.00 | 0.00 | 0.00 | 88 | 1019.5 | |
| 20260903020033 | 77 | 282 | 0.0 | 1.7 | 0.00 | 0.00 | 0.00 | 88 | 1019.4 |
| 20260903015028 | 77 | 320 | 0.0 | 0.9 | 0.00 | 0.00 | 0.00 | 88 | 1019.3 |
| 20260903014024 | 77 | 0.0 | 0.0 | 0.00 | 0.00 | 0.00 | 88 | 1019.4 | |
| 20260903013018 | 77 | 311 | 0.0 | 0.9 | 0.00 | 0.00 | 0.00 | 88 | 1019.4 |
| 20260903012033 | 77 | 288 | 0.0 | 1.7 | 0.00 | 0.00 | 0.00 | 88 | 1019.4 |
| 20260903011109 | 77 | 290 | 0.0 | 0.9 | 0.00 | 0.00 | 0.00 | 88 | 1019.4 |
| 20260903010025 | 77 | 290 | 0.0 | 0.9 | 0.00 | 0.00 | 0.00 | 88 | 1019.4 |
| 20260903005020 | 77 | 290 | 0.0 | 0.9 | 0.00 | 0.00 | 0.00 | 88 | 1019.5 |
| 20260903004015 | 78 | 290 | 0.0 | 0.9 | 0.00 | 0.00 | 0.00 | 88 | 1019.5 |
| 20260903003031 | 78 | 304 | 0.0 | 0.9 | 0.00 | 0.00 | 0.00 | 88 | 1019.6 |
| 20260903002026 | 78 | 296 | 0.0 | 0.9 | 0.00 | 0.00 | 0.00 | 88 | 1019.8 |
| 20260903001021 | 78 | 284 | 0.0 | 0.9 | 0.00 | 0.00 | 0.00 | 88 | 1019.9 |
| 20260903000017 | 78 | 308 | 0.0 | 0.9 | 0.00 | 0.00 | 0.00 | 88 | 1019.8 |
| 20260902235032 | 78 | 319 | 0.0 | 1.7 | 0.00 | 0.00 | 0.00 | 88 | 1019.8 |
| 20260902234028 | 78 | 266 | 0.9 | 1.7 | 0.00 | 0.00 | 0.00 | 88 | 1019.7 |
| 20260902233023 | 78 | 302 | 0.0 | 1.7 | 0.00 | 0.00 | 0.00 | 88 | 1019.7 |
| 20260902232039 | 78 | 44 | 0.0 | 0.9 | 0.00 | 0.00 | 0.00 | 88 | 1019.9 |